Wind_Speed
24 24 24 22 21 19 18 18 17 15 14 13 14 16 18 19 20 20 20 19 18 17 16 16 17 17 18 19 20 20 20 19 18 18 17 16 16 16 17 17 17 16 14 12 11 9 8 7 6 6 5 4 4 3 3 4 4 5 5 6 7 8 9
28 28 26 24 23 20 20 21 20 18 15 14 14 16 18 20 20 20 20 19 19 19 18 17 17 18 19 20 20 20 20 19 19 18 17 16 16 16 18 18 17 17 15 13 11 10 9 8 7 6 5 4 4 3 2 1 1 2 2 3 4 5 6
29 30 28 26 24 22 22 23 21 18 16 14 13 15 17 19 20 20 20 20 20 20 19 19 18 19 20 21 21 21 21 20 20 19 18 17 17 17 18 18 18 17 15 13 12 11 10 9 8 7 6 5 4 3 3 3 2 2 1 1 2 2 3
27 29 28 26 25 24 23 24 22 19 17 15 13 14 17 20 21 22 22 22 21 20 20 19 20 20 21 22 22 22 22 21 21 20 19 19 19 19 19 19 18 17 16 15 14 13 12 10 9 8 7 6 5 4 3 4 4 4 4 4 4 4 4
23 26 27 26 25 26 26 25 24 22 19 17 15 15 18 21 23 23 23 23 22 21 21 22 22 22 22 22 22 22 22 22 22 22 21 20 20 20 20 19 19 18 18 17 16 14 13 11 10 9 8 7 6 5 5 5 5 5 5 5 5 5 5
19 23 26 26 26 27 26 25 24 23 20 18 17 16 17 20 21 22 22 22 22 22 22 23 23 23 22 21 22 22 22 23 23 22 21 20 19 19 20 20 20 20 19 18 16 15 13 12 11 10 9 8 7 6 6 6 7 7 7 6 6 6 6
18 21 25 27 28 27 25 25 24 23 21 19 19 19 19 19 20 21 22 22 22 22 22 21 21 21 22 22 22 22 22 23 23 22 21 20 19 20 21 21 20 20 19 18 16 15 14 12 12 11 9 8 8 7 7 8 8 8 8 8 7 7 7
20 21 24 27 27 26 25 25 24 22 22 21 22 21 19 18 20 21 21 22 22 23 22 20 19 19 21 22 22 22 23 24 24 23 22 20 20 21 21 21 20 19 17 17 16 15 14 13 12 11 10 9 9 8 8 8 9 10 10 9 9 8 7
21 22 24 27 27 26 26 26 23 22 22 23 23 21 18 18 19 20 21 22 23 23 22 20 19 19 21 22 22 23 24 25 25 24 22 21 21 22 21 20 19 18 17 17 16 15 14 13 13 12 11 10 9 9 9 9 10 11 11 11 10 10 9
23 22 24 29 30 28 27 26 24 24 23 24 23 20 19 19 20 20 22 24 24 24 23 22 20 21 21 22 23 24 25 25 25 23 22 21 22 21 21 20 19 18 18 18 16 16 15 14 12 11 10 10 10 10 10 10 11 11 11 12 12 11 11
26 24 24 30 34 31 29 27 26 26 25 25 24 20 19 20 21 22 22 23 24 24 24 23 22 22 22 23 24 24 24 24 23 22 21 22 22 22 21 21 20 20 19 18 17 16 15 14 13 12 12 12 11 11 11 11 12 12 13 13 13 12 11
29 28 27 32 36 34 31 28 27 26 25 25 23 21 21 22 23 22 22 23 25 25 24 23 22 22 23 24 25 24 24 24 23 22 23 23 23 22 21 21 21 20 20 18 17 16 15 14 14 13 14 14 13 12 11 12 12 13 13 13 13 12 12
31 31 30 32 35 34 32 29 26 26 26 25 24 23 23 23 23 22 22 23 24 24 24 23 22 22 23 25 25 26 25 25 25 24 25 24 23 22 21 21 21 20 19 18 17 17 16 15 15 15 16 15 13 12 12 12 12 13 13 12 12 12 11
31 33 32 32 32 32 32 29 27 27 27 26 26 26 25 24 23 23 23 23 23 23 22 22 22 22 24 25 26 26 26 26 26 26 26 25 23 22 21 21 20 20 19 18 18 18 17 17 17 17 16 14 13 12 12 11 11 11 11 10 10 10 11
28 30 32 32 31 30 30 29 28 28 28 28 27 27 25 24 24 24 23 22 21 21 21 22 22 23 25 26 26 26 26 27 27 27 26 25 23 22 22 21 21 20 20 19 19 18 18 18 18 17 15 14 14 13 12 11 10 10 9 9 9 9 10
24 25 28 29 29 29 29 29 30 30 29 28 27 26 25 26 26 24 22 21 20 20 21 22 23 24 25 26 26 27 28 28 28 28 27 26 24 23 23 22 21 21 21 20 20 20 20 19 18 16 16 15 15 13 12 10 9 8 8 8 8 8 9
23 23 25 27 29 30 30 30 32 32 29 27 26 24 25 27 26 23 21 20 19 19 21 22 23 24 25 26 27 28 28 28 28 27 27 26 25 24 23 22 22 22 21 21 20 21 21 19 18 17 17 17 16 14 12 10 9 8 8 8 8 8 8
22 23 24 27 30 31 32 34 35 33 30 28 26 24 26 28 26 23 20 19 19 20 22 23 24 24 26 27 28 28 27 27 27 26 25 25 24 23 23 23 23 22 21 20 20 21 20 19 18 19 19 18 16 14 12 11 10 9 9 9 9 8 8
20 21 24 28 30 30 31 34 35 33 30 29 27 25 27 28 25 22 21 19 20 21 21 23 24 25 26 27 27 27 26 26 26 25 25 24 24 24 24 23 22 21 21 21 21 20 19 19 20 20 19 17 15 14 13 12 11 11 10 10 9 9 10
19 22 25 29 30 27 27 30 33 33 31 30 28 27 29 29 26 24 25 24 23 22 22 22 24 25 26 26 25 25 25 25 25 25 25 24 24 23 22 21 21 22 22 21 20 19 19 20 20 20 19 17 16 15 14 13 13 13 13 12 11 11 11
19 24 30 31 29 27 27 29 31 32 32 32 31 30 31 31 29 28 28 27 25 25 24 23 24 25 25 23 23 22 22 23 23 23 23 22 22 20 19 19 20 21 22 22 21 21 21 21 21 20 19 19 18 17 16 15 15 16 15 14 14 13 12
20 24 31 33 32 30 29 29 30 32 34 34 33 32 33 33 31 30 29 28 26 26 25 24 24 25 24 22 21 20 20 20 20 20 20 19 19 19 18 18 19 21 22 23 23 22 21 21 21 21 20 19 19 18 17 17 17 17 17 17 16 14 12
22 26 31 34 34 34 33 32 33 34 35 36 35 35 35 34 34 32 30 29 27 26 26 25 24 24 23 22 21 20 19 19 19 19 18 18 18 18 18 18 19 20 22 23 24 24 23 22 23 23 21 21 19 18 18 19 19 19 18 18 17 15 13
25 27 32 35 37 39 38 37 37 37 37 38 38 36 35 34 34 32 30 29 28 27 27 26 25 25 24 22 22 21 21 20 20 20 19 18 18 19 19 19 19 21 22 23 25 26 26 26 26 25 24 23 21 20 20 21 21 20 19 19 18 17 16
27 28 30 34 37 41 41 39 38 38 38 39 37 34 33 34 34 32 31 30 29 28 28 27 27 27 27 26 24 23 22 21 21 21 20 20 19 20 21 21 20 21 22 24 25 27 29 29 28 28 27 25 23 22 22 22 22 21 20 19 19 18 18
29 29 28 29 31 35 37 37 36 36 36 36 35 34 34 35 35 34 33 32 31 30 29 29 29 29 28 28 27 25 24 23 23 23 22 21 21 21 22 21 21 22 23 25 27 29 30 31 30 29 28 26 25 24 23 23 22 22 21 20 19 18 18
31 31 29 27 25 26 29 32 32 32 32 32 33 34 35 35 36 36 36 36 34 33 32 32 31 31 30 29 28 27 26 25 26 25 24 23 23 23 22 22 21 21 22 25 28 30 31 31 31 30 29 28 27 25 24 24 24 23 23 21 20 20 20
32 33 32 28 25 24 25 27 28 29 30 32 33 34 34 35 36 37 38 38 37 36 35 35 33 32 31 30 29 29 28 27 27 27 27 26 25 24 23 22 21 20 21 23 27 30 30 30 30 30 30 30 28 27 26 27 26 25 25 24 23 23 23
33 33 32 30 28 26 25 26 28 30 31 32 33 34 35 36 37 37 38 39 39 38 38 37 35 34 32 31 30 30 29 29 28 28 28 28 27 26 25 23 21 21 20 20 23 27 29 29 29 29 29 29 28 28 28 29 29 29 28 27 26 26 25
34 34 32 30 29 27 27 27 28 29 31 31 33 34 35 36 37 38 38 39 40 40 39 39 38 37 36 35 34 33 33 32 31 30 29 29 29 28 27 26 24 22 21 20 20 23 26 28 29 29 28 28 29 30 30 30 31 31 30 29 28 27 27
35 34 32 30 29 28 28 28 28 28 29 30 32 33 34 36 37 38 38 39 40 41 41 41 40 39 39 38 37 36 36 35 34 32 31 30 31 31 31 30 29 26 23 21 20 19 22 25 27 28 29 29 30 30 31 32 32 31 31 30 30 29 29
34 33 31 29 29 29 30 30 29 28 28 28 29 32 33 35 36 36 37 38 39 40 41 41 42 41 41 40 39 38 38 37 36 35 34 34 34 34 34 33 32 30 27 24 22 20 20 21 24 26 28 29 29 30 31 32 32 31 31 31 32 32 32
35 34 33 31 30 31 31 32 31 30 28 27 27 29 31 33 34 35 36 36 37 38 39 40 41 42 42 42 41 40 39 39 39 39 39 38 37 37 37 36 35 33 30 28 25 23 22 22 22 23 24 26 28 29 30 30 30 30 31 32 33 33 33
38 37 35 34 33 32 31 32 32 31 30 28 27 28 30 31 32 32 33 33 35 36 37 38 39 40 41 42 42 42 42 42 42 42 42 42 41 40 39 39 38 35 33 31 30 28 26 25 25 24 25 25 26 28 28 28 28 28 30 31 32 32 32
41 40 38 36 36 34 33 32 33 33 33 32 30 29 30 30 30 30 29 30 30 32 33 35 36 37 38 40 41 41 42 42 42 42 42 42 42 42 42 41 40 39 37 36 35 33 31 29 28 28 28 28 29 29 28 28 29 30 31 32 32 33 33
45 43 41 39 38 37 35 35 34 35 35 35 34 32 31 30 30 29 27 27 28 29 29 30 32 33 34 35 36 37 37 37 37 37 37 38 39 40 41 41 41 41 40 40 40 38 36 34 32 31 32 32 32 32 32 32 33 34 34 35 35 36 36
48 45 43 42 40 39 38 37 36 35 35 36 36 35 33 31 30 29 27 26 27 28 28 29 30 30 31 32 32 33 33 33 32 32 32 33 34 35 36 37 38 39 39 39 39 39 38 37 36 36 35 35 35 35 36 36 36 37 37 37 38 38 39
50 48 46 44 43 41 40 39 37 36 37 38 39 38 36 33 32 31 30 29 28 29 29 30 30 30 30 31 31 31 31 31 31 31 31 31 31 32 33 34 35 36 36 37 37 37 38 39 39 39 39 39 39 39 38 38 38 39 39 39 39 40 41
Wind_Direction
201 207 215 221 222 211 195 196 197 187 181 182 192 198 197 196 196 197 199 197 193 188 186 187 191 192 193 197 202 201 197 192 195 202 203 201 197 186 180 178 175 174 177 178 175 173 170 171 172 169 167 166 162 150 123 99 90 81 72 67 62 60 59
195 202 210 216 218 207 191 193 195 186 178 181 190 199 200 199 197 197 198 199 197 192 187 187 191 193 195 198 200 200 198 194 197 205 207 204 199 193 188 183 179 178 180 181 180 180 182 183 184 185 185 185 183 181 179 155 120 96 70 57 51 49 52
194 200 206 210 211 205 195 194 194 185 179 181 188 195 199 201 199 197 198 200 201 197 191 189 191 195 198 199 199 199 199 198 200 204 207 205 201 197 194 189 184 184 183 183 186 192 194 192 190 192 194 196 196 197 209 227 241 249 263 291 323 351 11
195 200 204 205 203 202 200 196 192 188 185 183 186 191 196 198 199 199 198 199 201 199 195 193 195 199 202 201 200 201 202 202 203 205 207 206 202 198 196 192 188 188 187 188 192 196 198 197 195 197 197 198 204 209 220 234 251 262 265 270 277 289 304
196 200 201 200 199 200 201 196 191 190 189 186 188 194 197 199 201 201 200 199 199 198 197 196 198 201 205 205 203 203 204 205 206 208 209 207 203 198 196 194 190 189 191 193 194 195 196 196 196 198 197 199 205 216 231 242 253 263 268 272 276 278 285
202 206 202 196 196 200 201 198 194 191 191 190 192 197 200 201 201 203 203 202 201 201 201 200 200 202 205 207 207 206 206 208 209 210 210 208 203 198 197 196 193 192 193 193 194 194 193 192 193 197 200 204 210 220 234 248 256 264 269 271 275 278 281
206 207 206 199 198 203 206 202 195 190 189 193 197 198 197 196 195 198 203 204 203 204 204 204 204 205 206 208 207 206 206 208 209 211 210 206 200 197 198 198 197 196 194 192 193 192 190 189 192 198 203 209 218 226 236 248 259 266 270 271 273 276 279
207 202 207 209 207 207 206 201 194 189 189 195 202 200 195 194 193 193 197 200 203 204 204 205 205 206 208 209 209 206 205 207 208 209 208 203 198 198 199 198 198 197 193 193 193 190 189 191 195 201 206 213 223 232 240 249 258 265 270 274 275 275 275
209 199 200 209 210 206 203 201 194 190 192 198 204 202 194 195 196 192 192 195 199 201 202 203 204 205 207 208 208 207 206 207 208 206 203 199 197 198 198 197 197 194 193 194 193 191 192 196 201 206 211 218 227 236 242 248 255 263 270 276 278 277 275
206 201 196 202 206 204 203 202 196 194 196 200 204 201 193 194 196 194 193 193 194 197 200 202 203 204 204 203 205 206 206 207 208 204 198 195 196 198 198 197 196 193 194 195 193 194 199 204 209 213 216 221 228 236 244 252 258 264 269 273 275 276 275
200 205 200 199 203 204 204 203 199 197 198 201 201 199 196 197 198 196 194 191 191 194 198 201 203 203 202 200 200 201 202 204 204 199 195 194 197 199 198 198 196 194 196 196 196 200 205 209 214 217 220 223 226 233 243 253 261 266 269 270 271 272 272
194 202 202 199 201 203 205 205 201 198 198 199 198 199 198 199 199 198 194 191 190 192 196 200 203 203 201 198 196 195 195 197 196 194 194 197 199 201 200 197 195 194 196 197 200 206 211 214 218 221 224 226 226 231 239 248 256 262 265 267 266 265 263
190 196 200 201 202 202 204 205 201 196 194 192 193 197 197 196 198 197 193 192 192 192 194 198 202 202 200 197 194 191 190 191 192 192 195 199 201 202 200 196 193 194 197 200 204 210 216 219 221 224 225 226 227 233 240 247 251 256 258 259 257 254 251
188 191 196 203 205 203 203 203 198 191 188 187 191 195 194 192 193 191 188 190 191 191 194 198 201 202 199 196 193 190 189 190 192 194 197 200 202 200 198 195 193 195 200 204 209 214 218 221 223 225 225 226 229 234 240 244 248 250 252 251 246 240 236
188 191 195 201 205 203 202 201 195 187 185 186 191 194 191 188 189 187 185 185 186 189 195 198 200 200 198 196 192 190 191 191 192 195 197 198 199 197 197 197 197 200 204 208 213 216 219 221 223 225 228 230 235 240 242 242 240 239 238 234 230 226 223
188 193 197 199 201 200 199 198 192 186 185 187 192 195 190 186 185 185 184 182 183 189 195 198 200 200 198 195 193 192 192 192 193 194 194 195 196 196 198 200 202 205 208 211 214 217 220 221 221 222 226 232 237 242 242 239 233 224 218 214 212 211 209
186 194 199 199 198 196 194 193 191 189 187 187 193 195 189 184 183 184 183 183 185 190 194 196 197 197 196 195 195 194 194 194 195 195 194 194 195 197 199 202 205 208 211 213 215 218 220 221 220 220 224 230 235 237 235 231 224 214 209 206 202 196 189
185 194 199 197 195 192 191 194 195 195 191 189 192 193 187 184 184 183 181 181 187 191 193 194 193 191 192 194 195 195 195 195 195 195 194 195 196 198 201 204 207 211 214 215 217 219 220 220 219 220 224 229 232 232 227 220 214 209 206 205 200 193 183
190 195 197 195 192 190 193 197 199 200 196 191 192 190 186 186 185 181 177 177 182 186 188 191 191 189 190 194 195 194 193 194 194 193 195 198 200 203 204 206 209 213 216 218 219 220 220 219 221 223 226 229 229 226 220 213 209 207 207 207 203 196 186
192 193 190 189 188 189 194 197 197 198 195 191 192 190 188 189 186 181 178 177 176 175 175 181 185 184 186 191 192 192 192 192 193 195 198 202 205 206 207 208 212 216 218 220 221 221 220 220 222 224 227 229 228 224 218 211 208 209 209 208 206 201 191
194 192 187 185 185 186 192 194 194 193 190 189 191 191 190 191 189 186 184 180 176 173 171 174 178 179 182 187 189 190 191 192 193 197 201 204 206 207 208 211 214 217 219 221 222 221 220 221 223 224 226 227 226 224 218 213 212 214 213 211 208 204 196
201 196 188 184 183 184 187 190 190 190 189 189 192 193 193 193 192 192 189 184 179 176 175 175 177 178 181 185 187 188 190 192 194 197 202 205 206 206 208 212 215 218 218 220 222 223 222 223 225 225 225 226 226 225 221 217 218 220 220 217 214 208 202
202 197 190 184 182 183 185 187 187 189 190 192 193 194 194 194 195 195 193 188 183 180 178 177 178 180 182 186 190 192 194 196 198 201 206 210 212 212 215 217 218 220 220 220 222 224 223 224 225 224 224 225 225 224 222 221 222 224 225 224 220 214 211
199 195 191 185 182 185 187 189 190 191 193 195 197 198 196 196 197 198 196 192 188 185 183 180 180 183 185 190 196 200 203 205 207 209 213 218 221 223 225 227 226 225 224 223 224 224 224 225 226 225 224 223 222 221 222 225 226 226 228 229 225 218 217
199 196 195 191 188 190 192 194 196 196 197 200 201 201 199 199 200 201 200 197 194 191 189 186 185 188 190 194 199 204 209 213 215 216 218 221 224 226 228 232 235 233 230 227 226 226 226 226 226 226 225 223 221 221 224 228 230 230 231 234 232 226 224
198 198 200 200 199 197 197 199 201 201 202 202 202 202 202 201 200 201 201 201 199 197 195 193 193 195 197 199 202 206 211 217 221 223 223 224 226 227 229 233 237 238 236 232 229 228 229 228 227 227 227 226 224 224 226 230 234 234 234 237 239 237 236
196 198 202 204 203 199 197 197 199 199 200 200 201 203 204 203 203 202 202 203 203 201 200 200 199 200 203 205 207 209 211 216 222 226 228 228 228 229 231 235 238 241 241 237 232 229 230 231 230 228 228 228 227 227 228 231 234 235 235 238 242 245 247
193 196 200 204 203 201 199 196 195 195 196 197 199 202 204 205 206 206 206 206 206 206 206 205 203 203 206 209 210 211 212 215 220 225 230 232 232 232 234 237 241 245 245 241 235 230 228 230 232 232 231 231 230 229 230 232 233 233 233 235 238 242 246
193 194 198 202 204 205 205 201 197 197 197 197 198 200 202 205 207 208 208 208 209 209 209 207 205 205 208 211 212 212 213 214 216 221 227 231 235 237 239 241 244 247 248 245 239 232 228 227 229 231 233 233 234 234 234 235 233 231 230 232 235 239 243
197 198 199 202 205 206 207 205 201 200 199 199 199 200 202 204 206 207 207 206 207 208 208 207 206 207 209 212 213 213 213 212 213 216 222 227 231 236 241 244 244 246 248 248 242 235 230 227 228 229 230 232 235 237 239 238 236 233 232 233 236 240 243
204 204 204 206 208 209 209 208 206 205 203 201 201 201 202 204 206 206 206 205 205 205 206 207 208 209 211 213 213 214 213 213 213 214 218 223 226 230 236 242 244 244 246 248 247 241 235 231 230 231 231 233 235 238 240 240 238 236 236 237 239 241 245
213 212 212 212 213 213 212 211 210 209 207 204 203 202 203 205 207 208 209 209 209 208 208 209 209 211 212 213 214 215 215 215 215 215 216 220 224 227 230 236 242 244 245 246 247 246 243 238 235 233 233 234 236 238 240 241 241 240 240 240 241 244 247
220 221 222 221 219 217 216 215 213 211 209 208 207 206 206 207 209 211 212 213 214 214 214 214 214 215 216 216 217 217 217 218 218 218 217 218 221 225 227 231 235 240 244 247 247 246 245 244 242 240 237 236 236 237 238 240 240 240 241 242 244 246 249
222 225 226 224 222 220 217 215 215 214 212 211 210 210 209 208 208 210 212 214 216 217 217 217 217 218 219 220 220 220 219 220 221 221 221 219 220 223 226 228 231 235 239 243 245 246 245 244 243 244 244 242 241 240 241 242 242 242 243 244 246 249 252
221 224 225 223 222 221 218 215 214 215 215 214 214 213 212 211 208 207 209 212 215 218 220 220 220 220 221 223 224 224 223 224 225 225 226 225 224 225 225 227 229 231 234 237 240 242 244 245 244 243 244 244 245 246 246 246 246 246 247 248 249 252 255
218 221 224 223 221 220 220 219 217 217 218 219 219 217 216 215 213 210 210 212 214 216 219 222 224 225 225 226 227 228 229 229 230 231 232 232 232 232 231 230 230 231 233 235 237 239 241 243 244 245 245 245 246 246 247 247 247 248 249 250 252 255 257
219 222 225 225 223 221 222 222 223 226 228 229 228 225 222 220 219 217 217 219 219 219 219 221 224 226 228 229 230 231 231 232 233 234 236 236 237 238 238 238 237 236 237 239 241 242 243 244 246 246 247 247 248 247 247 248 249 250 252 253 255 257 259
219 223 226 227 227 226 226 226 228 233 237 239 238 234 230 227 225 223 222 223 225 225 224 224 224 225 227 229 231 233 234 235 236 238 239 240 241 241 241 241 241 241 242 244 245 246 246 246 247 248 248 250 250 250 251 252 252 253 254 256 257 259 260
Height
5871 5872 5874 5875 5877 5879 5882 5884 5886 5887 5888 5889 5890 5892 5893 5895 5897 5899 5901 5902 5904 5906 5908 5910 5912 5914 5916 5918 5920 5923 5925 5926 5928 5929 5930 5931 5932 5933 5934 5935 5936 5937 5939 5940 5942 5942 5943 5944 5945 5945 5946 5946 5947 5947 5948 5949 5949 5949 5950 5950 5950 5950 5951
5867 5869 5871 5873 5875 5877 5880 5882 5884 5885 5887 5888 5889 5891 5893 5894 5896 5897 5899 5901 5903 5905 5907 5909 5911 5913 5915 5917 5919 5922 5924 5926 5927 5928 5929 5930 5932 5933 5934 5934 5935 5936 5938 5939 5941 5942 5943 5943 5944 5945 5945 5946 5946 5947 5948 5948 5949 5949 5950 5950 5950 5950 5951
5865 5866 5869 5871 5873 5876 5878 5881 5883 5884 5886 5887 5888 5890 5892 5893 5895 5896 5898 5900 5902 5904 5906 5908 5909 5912 5914 5916 5918 5920 5922 5924 5926 5927 5928 5930 5931 5932 5933 5934 5935 5936 5937 5939 5940 5941 5942 5943 5943 5944 5945 5945 5946 5947 5947 5948 5948 5949 5949 5950 5950 5950 5951
5863 5865 5867 5869 5871 5874 5876 5879 5881 5882 5884 5885 5887 5889 5890 5892 5893 5894 5896 5898 5900 5902 5905 5907 5908 5910 5912 5914 5917 5919 5921 5923 5924 5926 5927 5928 5930 5931 5932 5933 5934 5935 5936 5937 5939 5940 5941 5942 5943 5943 5944 5945 5945 5946 5946 5947 5947 5948 5949 5949 5949 5950 5950
5862 5863 5865 5866 5869 5872 5874 5876 5878 5880 5882 5883 5885 5887 5888 5890 5891 5893 5894 5896 5898 5901 5903 5904 5906 5908 5910 5912 5915 5917 5919 5921 5922 5924 5925 5927 5929 5930 5931 5932 5933 5934 5935 5936 5937 5938 5940 5941 5941 5942 5943 5944 5944 5945 5945 5946 5947 5947 5948 5948 5949 5949 5949
5861 5862 5863 5864 5867 5869 5872 5875 5876 5878 5879 5881 5883 5885 5887 5888 5890 5892 5893 5895 5897 5899 5900 5902 5904 5906 5909 5911 5913 5915 5917 5919 5921 5922 5924 5926 5928 5929 5930 5931 5932 5933 5933 5934 5935 5937 5938 5939 5940 5941 5942 5943 5943 5944 5944 5945 5946 5946 5947 5947 5948 5948 5948
5860 5862 5862 5863 5865 5867 5870 5872 5874 5875 5877 5879 5881 5882 5884 5886 5889 5890 5892 5893 5895 5897 5899 5901 5903 5905 5907 5909 5911 5913 5916 5918 5920 5921 5923 5925 5927 5928 5929 5930 5931 5932 5933 5934 5934 5935 5937 5938 5939 5940 5941 5941 5942 5943 5943 5944 5944 5945 5945 5946 5947 5947 5948
5858 5860 5862 5863 5864 5866 5868 5870 5871 5873 5874 5876 5878 5880 5882 5884 5886 5888 5890 5892 5893 5895 5897 5899 5901 5904 5905 5907 5909 5912 5914 5915 5917 5919 5922 5924 5926 5927 5928 5929 5930 5931 5933 5934 5934 5935 5936 5937 5938 5939 5939 5940 5941 5941 5942 5942 5943 5943 5944 5945 5945 5946 5946
5854 5857 5860 5861 5862 5864 5865 5867 5869 5870 5872 5874 5876 5879 5881 5883 5885 5886 5888 5889 5891 5894 5896 5898 5899 5901 5903 5905 5907 5910 5911 5913 5915 5918 5920 5923 5925 5926 5927 5928 5929 5931 5932 5933 5934 5934 5935 5936 5937 5938 5938 5939 5939 5940 5940 5941 5941 5942 5942 5943 5944 5944 5945
5850 5853 5856 5858 5860 5861 5863 5864 5866 5867 5870 5872 5874 5877 5880 5881 5883 5884 5885 5887 5889 5892 5894 5896 5897 5899 5900 5903 5905 5907 5910 5912 5914 5917 5919 5921 5923 5925 5926 5927 5928 5930 5931 5932 5933 5934 5935 5935 5936 5937 5937 5937 5938 5938 5938 5939 5940 5940 5941 5941 5942 5942 5943
5846 5849 5853 5855 5856 5858 5859 5861 5863 5865 5867 5870 5873 5876 5878 5880 5881 5882 5884 5885 5888 5890 5892 5894 5895 5897 5899 5901 5903 5905 5908 5911 5913 5916 5918 5920 5921 5923 5925 5926 5927 5928 5929 5931 5932 5933 5933 5935 5935 5936 5936 5936 5936 5936 5937 5937 5938 5938 5939 5940 5940 5941 5941
5842 5846 5849 5851 5853 5855 5856 5858 5861 5863 5865 5868 5871 5874 5876 5878 5879 5881 5882 5884 5885 5887 5890 5892 5894 5896 5898 5899 5902 5904 5907 5910 5912 5914 5916 5918 5920 5921 5923 5925 5926 5927 5928 5930 5930 5931 5932 5933 5934 5934 5934 5934 5934 5935 5935 5936 5936 5937 5937 5938 5938 5939 5939
5840 5843 5846 5849 5850 5852 5854 5856 5858 5861 5863 5866 5869 5872 5874 5876 5878 5879 5881 5882 5884 5885 5888 5890 5892 5894 5897 5899 5901 5903 5906 5908 5911 5912 5914 5916 5917 5919 5921 5923 5925 5926 5927 5928 5929 5930 5931 5932 5932 5933 5933 5933 5933 5933 5933 5934 5935 5935 5935 5936 5936 5937 5937
5837 5840 5843 5846 5847 5849 5851 5854 5856 5858 5861 5864 5867 5869 5871 5873 5875 5877 5879 5881 5882 5884 5886 5889 5891 5893 5895 5898 5900 5902 5905 5907 5909 5910 5912 5914 5916 5918 5919 5921 5923 5924 5926 5927 5928 5929 5929 5930 5930 5931 5931 5931 5931 5932 5932 5932 5933 5933 5933 5934 5934 5935 5935
5835 5838 5840 5842 5844 5847 5850 5852 5854 5857 5859 5862 5864 5867 5869 5871 5873 5875 5877 5879 5881 5883 5885 5888 5890 5892 5894 5897 5899 5901 5903 5905 5906 5908 5910 5912 5914 5916 5918 5920 5921 5923 5924 5925 5926 5927 5927 5928 5929 5929 5930 5930 5930 5930 5930 5930 5931 5931 5932 5932 5932 5933 5933
5834 5836 5838 5840 5842 5845 5848 5851 5853 5855 5857 5860 5863 5865 5867 5870 5872 5875 5877 5878 5880 5882 5884 5886 5889 5891 5893 5896 5898 5899 5901 5903 5905 5906 5908 5911 5913 5915 5916 5918 5920 5921 5922 5923 5924 5925 5925 5926 5927 5928 5928 5928 5928 5928 5928 5928 5929 5929 5930 5930 5931 5931 5931
5833 5834 5836 5838 5840 5843 5846 5849 5851 5853 5856 5859 5861 5864 5866 5869 5871 5874 5875 5877 5879 5881 5883 5885 5887 5890 5892 5894 5895 5897 5899 5901 5903 5905 5907 5909 5911 5912 5914 5916 5918 5919 5920 5921 5922 5923 5924 5925 5926 5927 5927 5927 5927 5927 5926 5927 5927 5928 5928 5929 5929 5930 5930
5831 5833 5835 5837 5839 5841 5844 5846 5848 5851 5854 5857 5860 5863 5865 5868 5870 5872 5874 5876 5878 5879 5882 5884 5886 5888 5890 5892 5894 5896 5898 5900 5902 5904 5906 5907 5909 5910 5912 5914 5916 5917 5918 5919 5920 5921 5922 5924 5925 5925 5925 5926 5926 5925 5925 5925 5926 5926 5927 5927 5928 5929 5929
5830 5832 5834 5835 5837 5840 5842 5844 5846 5849 5852 5855 5859 5862 5864 5867 5870 5872 5874 5875 5877 5878 5880 5882 5885 5887 5889 5891 5893 5895 5897 5899 5901 5903 5904 5906 5907 5908 5910 5912 5914 5915 5916 5917 5918 5919 5920 5922 5923 5923 5924 5924 5924 5924 5924 5924 5924 5925 5925 5926 5927 5927 5928
5828 5830 5832 5834 5836 5838 5840 5842 5845 5847 5850 5854 5857 5860 5863 5865 5868 5870 5871 5873 5875 5877 5879 5881 5883 5886 5887 5889 5891 5893 5895 5897 5899 5901 5902 5903 5905 5906 5908 5910 5911 5913 5914 5915 5916 5917 5919 5920 5921 5922 5923 5923 5923 5923 5923 5923 5923 5924 5924 5925 5925 5926 5927
5826 5828 5830 5832 5834 5837 5839 5841 5843 5846 5849 5852 5855 5857 5860 5863 5865 5867 5869 5871 5873 5875 5878 5880 5882 5884 5886 5888 5890 5892 5894 5896 5898 5899 5900 5902 5903 5905 5907 5908 5909 5910 5911 5912 5914 5915 5916 5918 5919 5920 5921 5921 5921 5921 5921 5922 5922 5922 5923 5923 5924 5925 5926
5824 5826 5828 5830 5832 5835 5837 5839 5842 5844 5847 5850 5852 5855 5857 5860 5863 5865 5867 5869 5872 5874 5876 5878 5881 5883 5885 5887 5889 5891 5893 5895 5896 5898 5899 5900 5902 5904 5905 5906 5907 5908 5908 5910 5911 5913 5914 5916 5917 5918 5919 5919 5919 5920 5920 5920 5920 5921 5921 5922 5923 5924 5925
5821 5824 5826 5828 5830 5834 5836 5838 5840 5842 5845 5847 5850 5852 5855 5858 5860 5862 5865 5868 5870 5873 5875 5877 5880 5882 5884 5887 5888 5890 5892 5894 5895 5897 5898 5899 5901 5902 5903 5904 5904 5905 5906 5907 5909 5910 5912 5914 5915 5915 5916 5917 5918 5918 5918 5918 5919 5919 5920 5920 5922 5923 5924
5818 5822 5824 5826 5829 5831 5834 5835 5837 5840 5842 5845 5847 5850 5853 5856 5858 5861 5864 5867 5869 5872 5874 5876 5879 5881 5883 5885 5887 5889 5890 5892 5894 5895 5897 5898 5899 5900 5901 5902 5902 5903 5904 5905 5906 5908 5910 5911 5912 5913 5913 5914 5915 5916 5916 5916 5917 5917 5918 5919 5920 5921 5922
5816 5819 5822 5825 5827 5829 5831 5833 5836 5838 5841 5843 5846 5850 5853 5855 5857 5860 5863 5865 5868 5870 5873 5875 5877 5879 5881 5883 5885 5887 5889 5890 5892 5893 5895 5896 5897 5898 5899 5899 5900 5900 5901 5903 5904 5905 5906 5907 5909 5910 5911 5912 5913 5913 5913 5914 5914 5915 5916 5916 5917 5918 5919
5814 5817 5820 5823 5825 5828 5830 5832 5835 5837 5840 5842 5846 5849 5851 5853 5856 5858 5861 5863 5865 5868 5871 5873 5875 5877 5879 5881 5883 5885 5886 5888 5890 5891 5892 5894 5895 5895 5896 5897 5897 5898 5899 5900 5901 5902 5903 5905 5907 5908 5908 5909 5910 5910 5911 5911 5912 5912 5913 5913 5914 5915 5916
5811 5815 5818 5820 5824 5827 5829 5832 5834 5836 5839 5842 5845 5847 5849 5851 5853 5856 5858 5860 5863 5866 5868 5870 5873 5875 5877 5879 5881 5882 5884 5886 5887 5888 5890 5891 5891 5892 5893 5894 5894 5895 5896 5897 5898 5899 5901 5902 5904 5905 5906 5906 5907 5908 5909 5909 5909 5910 5910 5911 5911 5912 5912
5809 5812 5815 5818 5821 5824 5827 5829 5832 5834 5837 5839 5842 5844 5846 5848 5851 5853 5855 5857 5860 5862 5865 5867 5869 5871 5874 5876 5878 5880 5881 5883 5885 5886 5887 5887 5888 5889 5890 5891 5892 5892 5893 5894 5895 5896 5898 5899 5901 5902 5903 5904 5905 5906 5906 5906 5907 5908 5908 5909 5909 5909 5910
5807 5810 5813 5816 5819 5821 5824 5826 5829 5831 5833 5836 5838 5840 5842 5844 5847 5849 5851 5854 5857 5859 5861 5863 5865 5867 5870 5872 5874 5876 5878 5880 5881 5882 5883 5884 5885 5886 5887 5888 5889 5890 5891 5891 5892 5893 5895 5896 5897 5898 5900 5901 5902 5903 5904 5904 5904 5905 5906 5906 5907 5907 5908
5804 5807 5810 5813 5816 5819 5821 5823 5826 5828 5830 5832 5835 5837 5839 5841 5843 5845 5847 5850 5852 5855 5857 5860 5861 5863 5865 5868 5870 5872 5873 5875 5877 5878 5880 5881 5882 5883 5884 5885 5886 5887 5888 5889 5889 5890 5892 5893 5894 5895 5896 5898 5898 5899 5900 5900 5901 5902 5903 5903 5904 5904 5905
5800 5803 5806 5809 5812 5815 5818 5820 5823 5825 5827 5829 5832 5834 5836 5838 5840 5842 5845 5847 5849 5851 5853 5855 5857 5859 5861 5863 5865 5867 5869 5871 5873 5875 5876 5878 5879 5880 5881 5881 5883 5884 5886 5886 5887 5888 5889 5890 5891 5892 5893 5894 5895 5895 5896 5896 5897 5898 5899 5900 5901 5901 5902
5796 5799 5803 5806 5808 5811 5814 5817 5819 5822 5824 5827 5829 5831 5833 5836 5838 5840 5843 5845 5846 5848 5850 5852 5854 5856 5857 5859 5861 5863 5865 5867 5869 5870 5872 5874 5875 5876 5878 5879 5880 5881 5882 5884 5885 5885 5886 5887 5887 5888 5890 5890 5891 5892 5892 5892 5894 5895 5896 5897 5897 5898 5898
5793 5796 5799 5802 5805 5807 5810 5813 5816 5819 5821 5824 5826 5829 5831 5833 5835 5837 5840 5842 5844 5846 5848 5849 5851 5853 5854 5856 5857 5859 5861 5863 5864 5866 5867 5869 5870 5872 5874 5875 5876 5878 5879 5880 5882 5882 5883 5884 5885 5885 5886 5887 5887 5888 5888 5889 5891 5892 5893 5893 5894 5894 5895
5790 5794 5796 5799 5802 5804 5806 5809 5812 5815 5818 5821 5823 5826 5828 5830 5833 5835 5837 5839 5841 5843 5845 5846 5848 5849 5851 5852 5854 5855 5856 5858 5859 5861 5862 5864 5866 5867 5869 5871 5873 5874 5876 5877 5878 5878 5879 5880 5881 5882 5883 5883 5884 5884 5885 5887 5888 5889 5889 5889 5890 5890 5890
5787 5790 5793 5796 5799 5801 5804 5806 5809 5811 5814 5817 5820 5823 5826 5828 5830 5832 5834 5836 5838 5840 5841 5843 5845 5846 5848 5849 5850 5851 5853 5854 5855 5857 5858 5860 5861 5863 5865 5866 5868 5870 5871 5872 5873 5874 5875 5876 5877 5878 5879 5879 5880 5881 5882 5883 5884 5884 5885 5885 5885 5886 5886
5782 5786 5790 5793 5796 5798 5801 5803 5806 5808 5811 5813 5816 5819 5822 5824 5826 5828 5830 5833 5835 5837 5838 5840 5842 5843 5845 5846 5847 5849 5850 5851 5852 5854 5855 5857 5858 5860 5861 5862 5864 5865 5867 5868 5869 5870 5871 5872 5873 5874 5874 5875 5875 5876 5878 5879 5879 5880 5880 5881 5881 5881 5881
5778 5782 5785 5789 5792 5795 5798 5800 5803 5805 5807 5809 5812 5814 5817 5820 5822 5825 5827 5829 5831 5833 5835 5837 5838 5840 5841 5843 5844 5845 5847 5848 5849 5851 5852 5854 5855 5856 5858 5859 5860 5861 5862 5863 5864 5865 5866 5867 5868 5869 5869 5870 5871 5872 5872 5873 5874 5875 5875 5876 5876 5876 5877
5774 5778 5781 5785 5788 5791 5794 5797 5800 5802 5804 5805 5807 5810 5813 5816 5819 5821 5823 5825 5828 5830 5832 5833 5835 5837 5838 5840 5841 5842 5843 5845 5846 5847 5849 5850 5851 5853 5854 5855 5856 5857 5858 5859 5860 5861 5862 5863 5864 5864 5865 5865 5866 5866 5867 5868 5869 5870 5870 5871 5871 5872 5872